Date,TemperatureHighF,TemperatureAvgF,TemperatureLowF,DewpointHighF,DewpointAvgF,DewpointLowF,HumidityHigh,HumidityAvg,HumidityLow,PressureMaxIn,PressureMinIn,WindSpeedMaxMPH,WindSpeedAvgMPH,GustSpeedMaxMPH,PrecipitationSumIn
2014-1-1,50,38,29,35,29,25,94,74,38,30.45,30.19,6,0,9,0.00
2014-1-2,48,43,37,45,40,33,97,89,77,30.18,29.60,3,0,13,0.29
2014-1-3,43,30,21,40,16,9,89,58,36,30.50,29.69,13,2,19,0.00
2014-1-4,37,29,19,24,16,9,89,60,37,30.55,30.30,4,0,6,0.00
2014-1-5,62,48,36,58,42,25,95,80,64,30.30,29.79,7,1,13,0.00
2014-1-6,61,45,18,58,34,-5,95,69,35,30.21,29.65,13,5,25,0.12
2014-1-7,25,17,10,10,-1,-7,77,46,30,30.55,30.22,8,2,20,0.00
2014-1-8,43,26,14,20,12,9,84,60,27,30.66,30.53,5,1,8,0.00
2014-1-9,53,34,24,31,22,8,85,66,17,30.61,30.50,3,0,6,0.00
2014-1-10,47,43,40,46,40,29,97,88,56,30.49,30.11,3,0,8,1.07
2014-1-11,68,56,44,65,55,43,99,96,88,30.11,29.61,10,2,24,0.07
2014-1-12,58,47,35,42,35,32,93,65,39,30.20,29.81,10,2,17,0.00
2014-1-13,60,46,31,44,37,30,97,73,46,30.20,29.98,9,1,17,0.00
2014-1-14,54,48,36,49,46,35,97,93,72,29.99,29.80,3,0,9,0.34
2014-1-15,58,44,34,47,38,33,98,83,50,30.00,29.85,9,1,14,0.01
2014-1-16,45,36,29,34,30,23,96,80,43,30.05,29.94,6,1,10,0.09
2014-1-17,55,41,28,38,30,24,90,69,45,30.05,29.88,9,2,18,0.00
2014-1-18,47,34,26,33,19,9,80,57,35,30.07,29.86,11,2,19,0.00
2014-1-19,53,40,30,30,24,19,83,56,38,30.05,29.92,11,2,17,0.00
2014-1-20,64,43,28,33,29,26,92,63,26,29.94,29.80,12,1,13,0.00
2014-1-21,51,37,27,36,31,24,94,79,52,29.86,29.54,4,1,11,0.09
2014-1-22,31,26,19,25,14,6,90,64,36,30.13,29.85,5,1,10,0.01
2014-1-23,38,26,16,17,13,5,91,61,35,30.46,30.12,11,1,14,0.01
2014-1-24,27,19,12,8,0,-5,69,44,26,30.65,30.31,8,1,12,0.00
2014-1-25,42,30,18,19,9,0,52,42,34,30.30,29.68,15,4,22,0.00
2014-1-26,51,39,22,29,21,16,86,51,27,30.01,29.84,11,2,16,0.00
2014-1-27,64,49,35,38,32,7,67,52,31,30.11,29.79,11,2,15,0.00
2014-1-28,35,27,19,18,6,-2,90,46,26,30.34,30.12,9,2,14,0.00
2014-1-29,28,21,14,16,10,0,89,64,31,30.41,30.21,3,0,12,0.11
2014-1-30,37,21,5,14,7,2,89,62,27,30.47,30.27,5,0,11,0.07
2014-1-31,51,30,13,24,16,10,90,62,22,30.27,30.17,5,0,10,0.02
2014-2-1,57,39,22,41,28,19,96,71,26,30.28,30.13,4,0,11,0.01
2014-2-2,63,50,42,50,46,41,97,86,59,30.13,30.04,7,1,17,0.01
2014-2-3,64,51,41,63,48,37,97,90,83,30.28,29.91,11,2,16,0.33
2014-2-4,41,39,38,38,36,35,96,90,83,30.42,30.11,9,2,13,0.40
2014-2-5,52,43,38,49,41,34,98,94,71,30.11,29.82,9,1,14,0.06
2014-2-6,42,37,31,33,27,24,81,68,52,30.35,30.10,4,0,11,0.00
2014-2-7,50,39,30,34,31,28,92,73,51,30.37,30.27,8,0,9,0.00
2014-2-8,51,39,30,35,31,28,93,76,48,30.30,30.14,7,0,8,0.00
2014-2-9,56,40,27,42,34,26,96,81,56,30.21,29.99,8,1,12,0.00
2014-2-10,42,37,34,37,33,27,96,86,58,30.27,30.02,4,0,11,0.06
2014-2-11,35,32,28,34,24,16,95,74,56,30.42,30.25,11,2,13,0.00
2014-2-12,30,26,23,29,19,13,95,75,55,30.45,29.82,8,2,15,0.00
2014-2-13,37,33,30,34,32,29,96,94,83,29.80,29.46,6,1,10,0.37
2014-2-14,59,42,29,35,31,27,94,70,30,29.83,29.70,10,1,13,0.61
2014-2-15,46,39,31,39,29,18,97,71,41,30.08,29.57,14,2,25,0.30
2014-2-16,53,38,30,33,25,18,88,61,40,30.19,30.03,8,1,15,0.00
2014-2-17,45,36,26,29,25,22,92,68,43,30.42,30.19,8,1,17,0.00
2014-2-18,65,47,35,40,31,22,88,60,19,30.25,30.11,8,1,12,0.00
2014-2-19,72,57,44,60,52,34,96,84,63,30.10,29.90,9,2,17,0.44
2014-2-20,74,62,49,61,51,41,97,69,54,30.21,30.00,13,2,15,0.00
2014-2-21,71,60,40,64,56,39,95,88,74,30.05,29.80,15,4,24,0.56
2014-2-22,64,46,34,44,34,25,97,70,23,30.22,30.05,3,0,6,0.00
2014-2-23,67,50,34,42,37,31,94,66,36,30.13,29.90,9,1,13,0.00
2014-2-24,60,49,36,42,32,23,91,56,24,30.16,29.89,7,1,14,0.00
2014-2-25,55,41,28,32,25,17,86,59,31,30.15,29.96,4,0,11,0.00
2014-2-26,48,39,28,30,26,22,86,63,42,30.00,29.80,4,0,9,0.00
2014-2-27,54,37,22,24,21,11,91,59,21,30.03,29.77,12,2,15,0.00
2014-2-28,45,36,28,19,15,11,57,43,28,30.35,30.04,11,2,18,0.00
2014-3-1,56,40,31,38,27,15,89,60,47,30.39,30.24,4,1,9,0.00
2014-3-2,70,52,31,48,41,30,96,68,42,30.27,29.92,10,2,15,0.00
2014-3-3,60,40,23,48,35,17,93,83,64,30.32,29.84,10,2,18,0.27
2014-3-4,38,28,17,19,15,9,77,58,41,30.39,30.24,6,1,14,0.10
2014-3-5,45,36,28,24,20,14,80,54,37,30.31,30.15,5,0,9,0.00
2014-3-6,43,36,29,32,25,15,94,68,47,30.39,30.11,14,3,20,0.61
2014-3-7,37,34,32,36,33,31,96,95,93,30.09,29.89,11,2,20,1.26
2014-3-8,67,47,28,47,38,27,97,76,40,30.11,29.97,8,1,15,0.00
2014-3-9,67,52,37,47,40,35,97,69,34,30.09,29.98,10,1,12,0.00
2014-3-10,73,53,32,41,34,27,96,57,20,30.04,29.81,8,1,14,0.00
2014-3-11,78,60,40,45,40,35,91,55,22,29.82,29.67,7,1,15,0.00
2014-3-12,68,60,45,59,51,31,92,72,53,29.70,29.22,13,3,23,0.31
2014-3-13,46,39,28,30,20,11,70,48,25,30.26,29.64,11,2,19,0.00
2014-3-14,60,42,23,36,21,16,88,51,19,30.36,30.12,11,2,19,0.00
2014-3-15,72,58,48,40,38,34,74,51,26,30.11,29.95,10,2,21,0.00
2014-3-16,55,47,39,45,39,31,93,76,42,30.06,29.85,10,2,20,0.14
2014-3-17,38,34,32,36,32,30,94,93,90,30.00,29.84,9,2,15,0.29
2014-3-18,37,34,31,36,33,29,96,95,93,30.20,29.96,5,1,9,0.05
2014-3-19,47,41,36,46,40,35,97,95,92,30.20,30.01,5,1,7,0.06
2014-3-20,66,51,40,46,38,29,98,68,27,30.05,29.95,11,2,20,0.01
2014-3-21,69,50,30,38,32,28,93,57,25,30.18,30.06,8,1,14,0.00
2014-3-22,75,60,45,47,42,35,85,55,27,30.09,29.93,13,2,18,0.00
2014-3-23,58,46,36,45,40,34,95,82,45,30.16,29.94,14,1,14,0.14
2014-3-24,50,39,29,36,28,23,96,69,36,30.31,30.13,7,1,11,0.00
2014-3-25,45,40,34,39,32,27,91,75,55,30.12,29.78,6,1,12,0.04
2014-3-26,47,37,29,31,19,14,87,51,27,30.35,29.98,10,2,21,0.00
2014-3-27,60,42,23,38,23,16,86,52,22,30.50,30.31,10,1,16,0.00
2014-3-28,69,57,45,59,50,38,97,80,63,30.31,30.11,6,2,16,0.18
2014-3-29,66,61,57,64,60,56,98,96,92,30.13,29.57,6,1,14,0.71
2014-3-30,63,49,42,61,38,31,94,68,48,29.97,29.57,14,4,25,0.01
2014-3-31,73,54,34,39,30,24,90,48,17,30.12,29.97,8,1,12,0.00
2014-4-1,81,59,38,45,38,32,92,55,17,30.16,30.00,7,1,11,0.00
2014-4-2,87,67,46,48,42,34,82,46,15,30.10,29.98,9,1,14,0.00
2014-4-3,79,63,49,55,49,43,83,61,38,30.09,29.90,5,1,9,0.00
2014-4-4,82,69,54,58,54,48,90,61,31,29.91,29.74,14,2,26,0.00
2014-4-5,72,64,54,57,44,32,89,51,28,30.08,29.80,9,1,15,0.00
2014-4-6,60,54,47,40,34,28,64,48,38,30.22,30.08,8,3,17,0.00
2014-4-7,62,51,44,61,47,34,97,87,49,30.11,29.68,7,1,14,0.91
2014-4-8,67,62,55,62,55,41,96,78,51,29.69,29.60,9,1,19,0.01
2014-4-9,68,56,46,49,43,37,94,64,34,30.12,29.69,7,1,13,0.03
2014-4-10,75,58,38,46,41,37,96,60,29,30.29,30.12,15,2,19,0.00
2014-4-11,78,66,54,52,46,43,70,51,30,30.23,30.05,13,3,22,0.00
2014-4-12,81,68,52,54,51,47,87,57,31,30.22,30.11,8,1,12,0.00
2014-4-13,82,69,55,62,56,52,92,65,42,30.23,30.08,10,2,16,0.00
2014-4-14,76,67,61,64,60,56,94,79,56,30.12,29.86,10,2,16,0.09
2014-4-15,70,61,41,67,58,34,96,90,68,30.03,29.60,10,2,20,1.03
2014-4-16,55,43,33,35,29,25,83,60,34,30.47,30.03,8,1,15,0.10
2014-4-17,63,48,32,43,35,29,94,63,36,30.57,30.43,12,2,15,0.06
2014-4-18,64,51,40,49,42,37,94,73,50,30.47,30.24,5,1,12,0.01
2014-4-19,53,50,47,49,47,45,96,90,75,30.23,30.15,9,1,14,0.47
2014-4-20,68,58,49,50,44,36,92,62,47,30.27,30.19,11,2,19,0.01
2014-4-21,75,57,42,46,37,26,81,54,17,30.21,29.94,5,1,12,0.00
2014-4-22,82,63,46,57,50,43,93,66,36,29.94,29.67,9,1,16,0.00
2014-4-23,73,61,47,56,42,31,96,58,22,29.98,29.70,11,1,15,0.00
2014-4-24,72,55,39,46,39,34,93,59,29,30.18,30.00,6,1,11,0.00
2014-4-25,80,63,48,69,56,43,94,80,55,30.02,29.65,11,1,18,0.15
2014-4-26,80,64,48,55,49,44,97,64,28,30.02,29.85,10,1,14,0.01
2014-4-27,86,68,48,59,52,47,94,61,27,30.02,29.91,7,1,10,0.00
2014-4-28,71,62,56,61,55,49,89,79,66,30.01,29.90,7,1,13,0.00
2014-4-29,66,59,54,62,57,52,97,92,84,30.04,29.93,8,1,13,0.09
2014-4-30,77,71,62,72,68,61,98,91,82,30.04,29.89,13,2,16,1.95
2014-5-1,77,71,64,68,64,60,93,80,55,29.91,29.79,8,1,16,0.00
2014-5-2,68,60,51,61,50,42,95,71,43,29.98,29.84,8,1,10,0.00
2014-5-3,76,62,51,57,50,45,95,69,34,29.93,29.85,9,1,15,0.00
2014-5-4,84,66,47,57,51,45,96,62,33,30.01,29.81,11,1,17,0.00
2014-5-5,77,65,53,58,54,48,95,69,48,30.04,29.85,8,1,13,0.00
2014-5-6,62,61,60,59,58,56,91,89,82,29.88,29.85,0,0,3,0.00
2014-5-9,60,60,60,59,59,59,96,96,96,30.16,30.16,0,0,9,0.00
2014-5-12,90,82,74,68,65,63,81,61,41,30.11,30.11,2,1,2,0.00
2014-5-14,87,79,70,66,64,62,82,61,49,30.13,30.05,3,2,0,0.00
2014-5-15,77,71,67,71,67,64,96,88,80,30.10,29.90,4,1,9,1.56
2014-5-16,60,60,60,54,54,54,82,82,82,29.97,29.97,0,0,0,0.18
2014-5-17,54,51,46,48,46,43,92,82,72,30.18,30.14,3,0,3,0.00
2014-5-23,73,68,65,63,62,61,87,81,71,29.97,29.94,0,0,0,0.00
2014-6-6,83,78,69,69,66,61,93,67,53,29.96,29.89,11,1,11,0.00
2014-6-8,84,74,63,71,65,61,94,75,52,29.99,29.88,3,1,0,0.01
2014-6-9,87,77,70,75,70,65,95,80,59,29.94,29.85,3,0,0,0.30
2014-6-10,92,78,68,76,71,66,97,81,48,29.95,29.88,3,1,0,0.21
2014-6-11,87,80,76,76,72,71,87,77,65,29.87,29.81,24,3,24,0.27
2014-6-12,81,73,68,75,70,67,98,91,78,29.93,29.82,2,0,0,0.32
2014-6-13,86,75,67,74,70,66,97,85,64,29.89,29.78,3,1,0,0.23
2014-6-14,86,71,62,70,66,59,95,87,50,30.07,29.90,7,0,10,0.01
2014-6-15,86,71,57,71,65,55,97,81,52,30.19,30.07,3,0,8,0.00
2014-6-16,93,80,68,75,70,67,97,75,46,30.20,30.07,6,1,10,0.00
2014-6-17,93,80,70,75,71,68,94,75,48,30.16,30.05,7,1,14,0.00
2014-6-18,95,81,68,75,71,67,94,73,44,30.12,30.03,7,1,13,0.00
2014-6-19,95,81,70,74,70,67,91,71,45,30.10,29.97,6,1,11,0.00
2014-6-20,91,78,69,77,71,68,97,82,52,30.05,29.91,5,0,18,0.23
2014-6-21,88,77,70,76,73,69,97,86,63,29.96,29.79,6,0,12,0.00
2014-6-22,83,74,69,74,70,68,97,89,70,29.98,29.81,4,1,11,0.01
2014-6-23,84,75,66,70,67,64,96,78,56,30.13,29.98,5,1,11,0.00
2014-6-24,84,76,68,74,69,65,92,80,63,30.14,30.01,6,1,10,0.00
2014-6-25,91,79,72,77,72,71,96,81,53,30.03,29.87,9,1,11,0.00
2014-6-26,93,80,69,73,70,68,97,75,46,29.98,29.89,5,0,8,0.00
2014-6-27,88,77,72,75,71,69,94,82,59,30.12,29.98,8,1,19,0.00
2014-6-28,86,77,70,71,69,59,96,77,55,30.23,30.12,10,1,15,0.00
2014-6-29,87,74,60,65,61,58,94,66,38,30.24,30.12,9,1,9,0.00
2014-6-30,90,77,66,71,67,63,93,72,51,30.14,29.96,7,0,11,0.00
2014-7-1,91,80,72,74,71,67,91,73,53,30.00,29.89,8,1,14,0.00
2014-7-2,96,85,73,75,73,69,87,68,49,29.97,29.90,8,2,14,0.00
2014-7-3,89,80,72,77,73,69,95,80,58,30.01,29.85,7,1,18,0.07
2014-7-4,88,77,69,71,65,57,94,67,43,30.16,29.87,9,1,12,0.02
2014-7-5,85,73,60,59,55,50,87,56,31,30.29,30.17,7,1,13,0.00
2014-7-6,88,75,60,65,62,58,95,66,41,30.20,30.03,6,1,10,0.00
2014-7-7,94,79,66,72,67,63,95,69,37,30.07,29.92,9,1,17,0.00
2014-7-8,97,85,73,73,68,60,90,61,29,30.02,29.86,13,2,18,0.00
2014-7-9,93,79,74,75,71,68,94,77,47,30.04,29.92,9,1,14,0.14
2014-7-10,87,75,70,75,72,68,96,89,62,30.11,30.00,4,1,14,0.81
2014-7-11,83,72,70,74,70,69,97,93,68,30.20,30.10,0,0,5,0.00
2014-7-12,89,77,66,74,69,65,97,78,49,30.23,30.12,8,1,10,0.00
2014-7-13,93,81,70,75,71,63,96,74,37,30.15,29.99,7,1,10,0.00
2014-7-14,91,81,74,81,74,71,93,81,57,30.02,29.86,8,1,11,0.05
2014-7-15,89,78,70,78,74,69,97,86,66,29.88,29.73,8,1,18,2.71
2014-7-16,80,73,66,71,68,63,98,87,57,29.94,29.80,3,0,10,0.01
2014-7-17,84,72,61,68,64,60,97,76,48,30.11,29.94,6,0,9,0.01
2014-7-18,84,74,62,67,63,56,97,71,40,30.20,30.10,6,1,11,0.00
2014-7-19,82,73,66,69,64,57,91,73,42,30.18,30.09,7,0,10,0.00
2014-7-20,80,71,68,72,67,64,95,89,77,30.14,30.06,3,0,8,0.17
2014-7-21,76,74,71,75,73,70,97,95,92,30.16,30.06,4,0,6,1.35
2014-7-22,85,76,70,76,73,69,98,90,72,30.17,30.07,5,0,8,0.02
2014-7-23,90,79,70,77,73,69,98,83,59,30.11,29.91,8,1,16,0.00
2014-7-24,88,78,69,77,74,67,96,87,63,29.95,29.81,6,1,15,1.17
2014-7-25,82,73,66,72,69,66,97,87,67,30.07,29.96,5,0,8,0.00
2014-7-26,88,77,68,77,72,67,97,86,61,30.04,29.92,3,0,9,0.00
2014-7-27,87,78,70,76,73,69,97,85,68,29.96,29.76,5,0,13,0.10
2014-7-28,87,80,69,74,68,63,83,67,51,29.87,29.73,11,2,20,0.00
2014-7-29,82,72,63,65,62,58,91,73,44,29.99,29.86,5,0,8,0.00
2014-7-30,80,72,63,70,66,61,93,82,64,30.08,29.98,4,0,9,0.00
2014-7-31,81,73,66,72,68,65,96,85,63,30.16,30.07,3,0,8,0.41
2014-8-1,75,69,65,72,67,64,97,93,74,30.16,30.07,11,1,14,0.83
2014-8-2,70,67,64,69,66,64,98,96,94,30.14,30.07,3,0,6,0.21
2014-8-3,79,70,68,72,68,67,98,93,77,30.15,30.05,3,0,6,0.01
2014-8-4,83,74,67,73,69,66,98,88,65,30.12,30.03,4,0,9,0.00
2014-8-5,88,76,66,74,70,65,98,83,56,30.07,29.96,4,0,9,0.00
2014-8-6,88,76,70,73,70,64,97,83,47,30.00,29.92,6,0,10,0.00
2014-8-7,86,76,68,74,70,67,97,81,60,30.03,29.91,5,0,8,0.00
2014-8-8,80,74,68,71,69,67,98,86,69,30.12,30.03,4,0,6,0.00
2014-8-9,74,67,64,69,66,63,98,95,82,30.13,30.05,5,1,9,2.22
2014-8-10,78,71,65,72,68,65,98,91,78,30.12,30.05,7,1,10,0.02
2014-8-11,83,74,70,73,70,68,97,88,72,30.09,29.96,10,1,12,0.80
2014-8-12,86,74,69,78,72,68,98,92,75,29.98,29.77,5,1,10,1.50
2014-8-13,82,74,65,72,68,63,98,83,56,29.98,29.81,7,0,11,0.00
2014-8-14,81,70,58,67,62,57,98,78,46,30.06,29.95,4,0,9,0.01
2014-8-15,85,73,60,74,66,59,98,83,59,30.05,29.95,4,0,10,0.00
2014-8-16,87,77,67,74,70,66,98,81,56,30.03,29.96,4,0,7,0.00
2014-8-17,87,77,69,77,71,65,98,84,52,30.02,29.94,5,0,8,0.00
2014-8-18,88,76,72,77,73,71,97,89,67,29.95,29.77,8,0,16,0.65
2014-8-19,87,76,68,76,72,68,98,89,64,29.89,29.78,4,0,7,0.00
2014-8-20,89,78,70,79,73,69,98,87,65,30.02,29.88,4,0,7,0.00
2014-8-21,90,79,71,77,74,70,98,84,59,30.07,29.98,5,0,9,0.00
2014-8-22,90,78,71,78,74,70,98,88,60,30.03,29.94,5,0,9,0.73
2014-8-23,85,77,73,78,74,71,98,90,73,29.98,29.90,7,1,9,0.28
2014-8-24,78,73,66,71,67,62,94,82,66,30.12,29.97,7,1,14,0.00
2014-8-25,78,69,59,68,64,58,98,83,64,30.13,30.08,7,1,14,0.00
2014-8-26,81,70,60,67,64,59,98,82,59,30.16,30.07,7,1,11,0.00
2014-8-27,86,71,57,69,64,56,98,80,47,30.08,29.97,4,0,10,0.00
2014-8-28,90,75,62,79,69,61,98,84,60,30.01,29.94,4,0,7,0.00
2014-8-29,83,76,72,75,73,71,97,88,75,30.17,30.01,5,1,10,0.00
2014-8-30,88,78,72,76,73,70,96,84,61,30.22,30.11,5,1,10,0.00
2014-8-31,90,80,71,77,73,70,97,83,54,30.20,30.04,5,1,10,0.00
2014-9-1,93,80,72,78,74,71,97,82,50,30.11,30.01,5,0,9,0.00
2014-9-2,93,80,71,79,73,70,97,80,51,30.07,29.93,13,1,19,0.00
2014-9-3,91,79,70,76,72,69,97,81,54,30.13,29.97,11,0,18,0.00
2014-9-4,89,78,71,78,73,70,96,87,62,30.20,30.08,7,1,10,0.42
2014-9-5,89,78,70,78,73,70,98,86,59,30.20,30.07,4,0,8,0.01
2014-9-6,89,78,69,76,73,69,98,84,62,30.10,29.93,6,1,9,0.00
2014-9-7,80,76,71,75,71,67,97,87,79,30.10,29.96,8,1,13,0.00
2014-9-8,72,70,68,71,68,67,97,96,87,30.11,30.01,7,1,12,1.38
2014-9-9,76,69,65,71,68,65,98,94,84,30.12,30.04,5,0,8,0.06
2014-9-10,80,72,68,72,69,67,97,89,70,30.14,30.03,3,0,5,0.00
2014-9-11,88,76,66,78,71,65,98,88,68,30.05,29.94,10,1,12,0.00
2014-9-12,80,75,70,75,71,69,97,89,77,30.10,29.98,5,1,11,0.00
2014-9-13,81,73,69,77,71,68,97,93,85,30.18,30.04,3,0,12,0.14
2014-9-14,70,66,63,67,61,57,90,83,73,30.27,30.17,9,1,11,0.01
2014-9-15,73,67,63,68,64,61,96,90,80,30.25,30.11,2,0,6,0.00
2014-9-16,82,73,66,71,68,65,98,85,59,30.11,29.93,4,0,9,0.08
2014-9-17,78,71,66,69,67,64,97,86,69,29.99,29.90,8,1,12,0.00
2014-9-18,80,70,60,67,64,59,97,81,57,30.07,29.93,4,0,10,0.00
2014-9-19,78,70,64,65,62,57,91,76,58,30.24,30.07,5,1,14,0.00
2014-9-20,80,69,58,65,61,56,97,78,55,30.24,29.99,8,1,10,0.00
2014-9-21,85,73,62,70,65,61,97,79,54,30.00,29.79,6,1,14,0.01
2014-9-22,74,69,63,69,61,54,96,77,51,30.16,29.86,4,0,12,0.00
2014-9-23,64,60,55,60,54,49,95,80,69,30.33,30.15,7,1,14,0.10
2014-9-24,63,59,55,62,58,52,97,96,91,30.31,30.22,4,1,12,0.75
2014-9-25,68,65,63,65,63,62,98,94,86,30.26,30.18,4,0,10,0.05
2014-9-26,74,66,60,66,63,59,97,90,69,30.22,30.15,5,0,11,0.00
2014-9-27,76,64,54,65,60,54,98,87,64,30.24,30.16,5,1,10,0.01
2014-9-28,78,65,54,67,60,53,98,86,60,30.21,30.08,4,0,7,0.00
2014-9-29,67,63,62,65,62,61,98,97,94,30.08,29.97,0,0,2,0.05
2014-9-30,74,65,60,68,63,59,98,94,77,29.97,29.87,3,0,7,0.01
2014-10-1,77,65,55,69,62,55,98,91,71,30.05,29.92,3,0,6,0.00
2014-10-2,81,70,60,71,65,59,98,87,60,30.12,30.03,3,0,8,0.01
2014-10-3,82,72,63,69,66,62,98,84,54,30.07,29.77,10,1,16,0.01
2014-10-4,71,66,50,70,55,39,96,71,38,29.92,29.69,7,1,17,0.01
2014-10-5,65,51,39,48,42,38,97,73,39,30.05,29.89,10,1,13,0.00
2014-10-6,74,58,44,55,48,43,97,73,43,30.12,30.02,9,1,14,0.00
2014-10-7,78,66,52,61,57,51,96,75,50,30.16,30.00,9,1,13,0.00
2014-10-8,83,70,60,67,63,59,96,81,52,30.06,29.94,7,1,11,0.00
2014-10-9,78,64,50,62,54,49,97,76,42,30.18,30.06,5,0,8,0.00
2014-10-10,82,69,56,69,63,55,97,83,62,30.13,29.99,13,1,17,0.83
2014-10-11,83,70,60,73,66,59,97,89,66,30.12,29.92,10,1,13,0.67
2014-10-12,62,60,57,61,58,55,97,95,91,30.24,30.10,4,0,10,0.02
2014-10-13,79,69,60,71,66,60,98,89,73,30.26,30.14,5,0,10,0.01
2014-10-14,78,73,69,73,71,68,97,92,83,30.16,29.90,8,2,17,0.51
2014-10-15,74,66,59,72,63,57,97,92,77,29.91,29.81,8,1,12,0.30
2014-10-16,67,59,52,61,55,52,98,89,68,29.86,29.77,6,0,12,0.01
2014-10-17,73,59,47,60,53,46,98,84,55,29.94,29.82,7,1,10,0.01
2014-10-18,75,61,51,62,53,48,98,79,53,29.93,29.75,6,0,14,0.01
2014-10-19,64,54,44,50,46,43,96,77,49,30.16,29.92,4,0,14,0.00
2014-10-20,70,53,40,55,46,39,98,80,49,30.19,29.99,9,1,12,0.00
2014-10-21,72,60,49,59,53,43,97,79,50,29.99,29.84,8,1,11,0.00
2014-10-22,66,55,48,49,45,42,87,70,50,30.05,29.94,5,1,15,0.00
2014-10-23,68,53,40,51,46,40,97,78,50,30.05,29.93,7,1,11,0.00
2014-10-24,68,53,43,55,47,42,97,81,48,30.09,29.97,5,0,10,0.00
2014-10-25,70,53,39,54,46,39,98,82,47,30.05,29.89,4,0,9,0.01
2014-10-26,75,58,46,57,49,44,98,75,37,29.99,29.84,4,0,14,0.00
2014-10-27,75,55,39,54,45,38,98,74,30,30.15,29.99,3,0,8,0.01
2014-10-28,82,63,47,65,56,46,98,81,47,30.17,30.04,7,1,15,0.00
2014-10-29,77,66,57,63,60,54,94,81,55,30.04,29.90,8,1,14,0.03
2014-10-30,65,56,45,53,48,42,97,77,44,30.07,29.97,5,0,10,0.01
2014-10-31,61,51,40,48,45,39,97,82,57,30.00,29.77,4,0,6,0.00
2014-11-1,50,48,44,47,44,37,96,86,70,29.95,29.69,9,1,16,0.46
2014-11-2,53,44,32,38,31,27,91,62,39,30.34,29.96,7,1,17,0.00
2014-11-3,63,43,28,41,33,27,96,73,28,30.46,30.33,5,1,9,0.00
2014-11-4,66,50,37,45,40,34,96,70,30,30.38,30.25,7,0,12,0.00
2014-11-5,70,56,45,55,50,43,95,82,53,30.32,30.16,10,1,14,0.00
2014-11-6,69,61,50,64,57,42,94,87,72,30.15,29.74,8,1,18,0.29
2014-11-7,59,47,38,43,40,37,97,78,45,30.09,29.86,9,1,16,0.01
2014-11-8,58,45,31,45,38,30,97,80,52,30.12,29.98,9,1,10,0.00
2014-11-9,60,48,38,48,43,37,97,84,54,30.06,29.95,1,0,5,0.00
2014-11-10,64,47,34,48,42,33,98,83,49,30.17,30.06,5,0,11,0.00
2014-11-11,70,54,42,62,51,41,98,90,72,30.07,29.91,3,0,9,0.00
2014-11-12,75,59,49,58,53,44,98,82,53,30.04,29.92,6,0,9,0.01
2014-11-13,58,51,45,48,42,36,77,70,58,30.08,29.99,9,1,11,0.00
2014-11-14,45,38,29,35,26,17,87,64,41,30.36,30.05,7,1,12,0.00
2014-11-15,45,33,23,25,20,18,87,64,34,30.49,30.36,4,0,11,0.00
2014-11-16,48,39,26,42,33,24,96,81,53,30.41,30.10,3,0,4,0.06
2014-11-17,67,53,43,65,51,36,98,93,70,30.08,29.61,8,2,16,0.52
2014-11-18,44,33,22,35,20,14,88,61,38,30.36,29.89,8,1,14,0.00
2014-11-19,43,31,19,23,17,13,91,61,32,30.46,30.26,7,1,12,0.00
2014-11-20,58,41,27,34,27,20,86,61,36,30.25,30.04,13,1,16,0.00
2014-11-21,49,36,27,31,22,13,95,64,26,30.57,30.18,5,0,11,0.00